User: anonymous
Location: Clinton NY
(43.0598°N, 75.3602°W)
Time: 06:20:52
(UTC-04:00)
Language:

Cosmos-2242 - Orbit

View from above orbital plane
View from above orbital plane
View from above satellite
View from above satellite

Ground track
Ground track

The orbit data is extracted from the following two-line orbital elements,

1 22626U 93024A   14208.42409242  .00000491  00000-0  53347-4 0  1541
2 22626 082.5250 316.2291 0019830 026.7810 333.4426 14.85947797149247
Epoch (UTC): 27 July 2014 10:10:41
Eccentricity: 0.0019830
inclination: 82.5250°
perigee height: 597 km
apogee height: 624 km
right ascension of ascending node: 316.2291°
argument of perigee: 26.7810°
revolutions per day: 14.85947797
mean anomaly at epoch: 333.4426°
orbit number at epoch: 14924

The dashed part of the orbit path shows where the satellite is in the earth's shadow,  

DLR